Wind_Speed
11 11 11 12 12 12 12 12 12 12 12 12 11 11 10 10 11 11 11 11 11 11 11 11 11 11 12 12 12 12 12 11 11 11 12 12 11 11 11 10 10 10 10 10
13 13 13 14 13 13 13 13 12 11 12 12 12 12 11 11 11 11 11 11 11 11 11 11 11 11 12 12 12 13 12 12 12 11 12 12 11 10 10 10 10 10 10 10
14 14 15 15 14 14 14 14 12 12 12 12 12 12 12 12 12 11 11 11 11 12 11 11 11 11 12 12 13 13 12 12 12 12 12 12 11 10 10 11 11 11 11 11
15 15 15 15 15 14 14 14 13 13 13 13 13 13 12 13 13 12 12 12 12 12 12 12 12 11 12 12 13 12 12 12 12 12 12 11 11 11 11 11 11 11 11 12
15 15 15 15 15 14 14 14 14 14 14 14 14 14 14 13 13 13 13 13 13 13 12 12 12 12 12 12 12 12 12 11 11 12 12 12 12 12 13 13 13 13 12 13
15 15 15 15 15 15 15 15 15 15 15 15 13 14 14 13 14 13 13 13 13 13 13 13 12 12 13 13 13 13 13 12 12 12 12 12 12 13 14 14 14 15 14 14
15 15 15 15 16 15 15 15 15 16 15 15 14 14 14 14 14 14 13 13 13 13 13 13 13 13 13 13 14 14 14 14 13 13 14 14 14 14 15 15 15 16 16 16
16 15 15 15 15 14 14 15 15 16 15 15 15 15 14 14 15 14 14 15 14 14 14 14 13 14 14 15 14 14 14 15 15 14 15 15 16 16 16 16 17 17 17 17
16 16 15 15 15 15 15 15 15 15 16 16 16 16 14 14 15 15 15 15 15 16 16 15 14 15 16 16 16 16 16 15 15 16 16 16 16 17 18 18 18 18 19 18
17 16 15 15 16 16 16 16 16 16 16 17 17 16 15 15 15 15 15 16 16 17 17 17 17 17 17 18 18 18 17 17 17 17 18 18 17 17 18 19 20 20 20 20
17 17 16 16 17 16 16 16 17 17 17 17 17 16 16 16 15 15 16 16 17 18 18 18 18 18 19 20 19 19 19 19 19 19 19 19 19 19 19 19 20 20 20 20
17 18 17 17 17 17 17 17 18 18 18 18 18 17 17 17 17 17 16 17 18 19 19 19 19 19 20 20 20 20 21 20 21 21 20 20 20 20 20 20 20 21 21 21
18 18 18 18 18 18 19 18 18 18 19 18 18 17 18 18 18 18 18 18 19 20 21 21 20 20 21 21 21 21 22 22 22 22 22 22 22 23 23 22 22 22 22 22
19 20 20 19 19 19 19 19 19 19 20 20 19 18 19 18 18 18 18 19 20 20 21 22 22 21 22 22 22 22 22 22 23 23 24 24 24 24 24 24 24 23 23 23
20 21 20 21 21 21 21 19 19 20 20 20 19 19 18 18 19 19 19 20 20 21 22 23 23 23 23 23 23 23 23 23 23 24 24 25 25 25 25 25 25 25 25 24
21 22 21 21 21 22 22 19 19 20 20 20 20 19 19 19 18 19 20 20 21 21 22 23 24 24 25 25 25 25 25 24 25 26 26 26 26 26 26 26 26 27 26 26
21 22 22 21 21 22 22 20 20 21 21 21 21 20 20 20 19 19 19 20 19 20 22 22 23 24 25 25 26 26 26 25 26 26 26 26 26 27 27 27 27 27 27 27
21 22 22 21 21 22 21 20 20 20 19 20 21 20 20 21 21 22 21 20 21 21 22 23 24 25 25 26 27 27 26 26 26 26 26 27 27 27 28 27 28 28 29 28
20 21 22 22 22 20 19 20 21 20 20 21 21 20 21 22 22 23 23 23 24 25 25 25 26 26 26 26 27 27 27 26 26 26 26 26 27 27 27 27 27 28 29 29
19 19 21 22 22 21 19 19 21 22 22 22 22 21 21 22 23 23 25 26 26 26 27 27 26 26 26 26 26 27 26 26 26 27 27 27 27 26 27 27 28 28 29 30
19 20 22 22 23 22 20 19 20 22 22 23 23 22 22 23 24 24 25 26 26 26 27 26 26 26 25 26 26 26 27 27 27 28 27 27 27 27 27 27 28 29 29 30
19 20 22 22 23 23 22 21 21 22 22 22 23 23 23 23 23 24 25 26 26 26 26 26 25 25 25 25 25 26 26 27 27 27 27 27 27 27 27 27 28 28 28 29
21 21 21 22 22 22 23 23 23 23 23 23 23 23 23 23 24 24 25 26 26 26 25 25 25 25 24 25 25 25 26 27 27 27 27 26 26 26 26 26 27 28 28 29
22 22 22 23 22 22 23 24 24 24 24 24 24 24 24 25 25 26 26 26 25 25 25 24 24 24 25 25 25 25 26 27 27 26 26 26 26 26 26 26 27 27 28 29
22 23 24 24 24 24 24 24 25 25 25 26 26 27 26 26 26 26 26 26 25 25 24 24 24 24 24 24 24 25 26 27 27 27 26 26 26 26 27 27 28 28 28 29
23 25 25 24 24 25 24 25 26 27 28 28 28 28 27 27 27 27 27 26 26 25 25 25 25 24 24 24 25 26 27 27 27 27 27 27 27 27 28 27 27 28 28 28
Wind_Direction
261 263 264 264 264 266 268 267 268 268 267 266 268 270 272 274 275 275 275 276 278 280 282 284 286 287 286 286 288 290 292 294 296 297 296 295 295 294 293 290 288 290 289 288
263 264 263 263 264 267 269 268 268 266 266 266 266 267 267 270 272 273 275 276 277 280 281 281 282 287 288 285 284 284 287 290 291 293 294 296 298 298 297 293 290 291 290 288
267 266 265 266 267 267 270 268 268 267 266 267 266 264 266 266 266 267 273 275 275 277 279 278 279 282 284 283 283 283 284 288 289 290 290 292 294 293 294 294 292 291 290 289
268 267 265 265 265 266 266 267 266 266 265 266 267 266 266 267 265 267 269 275 277 276 279 279 279 280 282 283 281 280 281 284 286 286 287 289 289 289 289 289 290 289 289 290
270 269 266 264 265 265 265 265 265 265 266 267 268 268 266 267 268 268 268 274 275 274 274 278 279 280 280 281 281 278 280 281 281 281 282 284 284 285 286 286 287 288 290 289
270 268 265 265 265 263 262 262 264 264 266 266 267 268 268 268 269 270 272 276 277 276 275 276 279 279 278 278 278 275 276 279 281 280 279 281 282 283 283 284 287 287 290 290
270 269 266 264 261 260 259 260 265 267 266 267 265 264 268 269 268 270 272 275 274 273 275 278 279 280 279 281 279 277 275 276 277 278 278 280 281 282 284 285 286 286 287 288
269 267 267 264 262 261 260 261 265 268 270 270 267 266 268 271 272 272 269 272 272 271 272 275 277 275 278 281 281 279 279 277 276 276 279 280 279 279 281 283 283 283 283 284
269 265 262 260 259 261 262 260 263 265 267 269 268 269 269 271 270 269 268 270 271 270 270 274 276 277 279 280 279 280 280 279 277 275 275 278 278 279 279 280 281 281 280 281
268 263 258 257 259 260 262 263 264 265 267 268 270 268 271 272 270 269 271 271 272 272 272 274 276 277 277 278 278 278 279 278 277 276 275 276 277 278 278 278 279 281 280 279
268 262 257 256 257 259 260 263 265 267 268 270 271 271 269 271 272 272 272 274 275 273 273 273 274 278 278 277 276 276 277 277 276 276 276 275 276 277 278 278 279 279 280 279
265 261 259 258 257 259 261 264 267 269 269 271 274 272 272 270 273 273 273 275 274 272 272 274 274 276 279 280 280 278 276 275 274 275 277 276 274 275 276 277 278 279 279 279
262 259 258 258 257 257 260 264 269 269 268 271 273 272 272 272 273 274 275 276 275 273 273 275 276 276 277 278 278 278 278 278 276 276 276 275 275 275 275 275 276 276 277 278
256 257 259 261 262 261 261 263 266 264 263 269 272 271 270 271 273 277 278 277 275 273 272 274 276 276 277 277 277 276 278 279 279 279 278 277 276 276 276 275 274 274 275 275
256 257 260 262 262 260 261 265 265 263 266 270 272 273 272 275 275 277 279 280 278 277 275 275 277 277 277 279 279 277 278 277 278 279 278 278 277 277 276 275 273 273 275 275
256 258 258 259 260 260 260 263 264 265 268 270 271 274 278 281 280 280 279 281 282 281 280 279 279 279 278 278 278 280 280 278 278 278 279 278 278 278 276 274 273 272 273 274
256 257 255 253 257 260 259 261 264 267 268 270 272 276 277 277 277 278 280 282 283 282 282 281 281 281 281 280 280 281 281 280 280 280 280 278 278 277 277 275 273 272 273 274
258 258 256 254 255 256 260 262 264 266 266 268 271 273 274 276 276 279 282 283 283 284 285 285 284 283 282 282 281 280 282 281 281 282 281 279 279 278 276 275 274 273 272 273
260 258 257 257 259 258 257 260 264 267 269 270 273 274 274 276 278 281 284 285 287 288 288 288 287 287 286 284 283 282 282 283 282 282 283 281 279 277 275 275 275 274 273 273
257 258 257 257 258 260 262 264 268 271 272 275 276 278 278 277 279 283 284 285 286 288 287 288 289 287 286 284 284 284 283 284 283 282 283 282 280 277 276 275 276 276 276 276
259 260 260 260 263 266 267 268 270 272 274 277 278 280 279 278 281 284 285 286 287 288 287 286 286 286 285 285 284 285 283 284 284 284 284 283 280 277 276 276 275 275 277 277
266 265 262 262 265 266 266 267 270 274 277 279 280 280 280 281 283 286 287 287 287 288 288 285 283 283 284 284 284 285 284 285 285 284 283 283 279 278 278 278 278 276 277 278
261 264 266 266 267 267 265 267 270 272 275 278 280 281 281 282 285 288 288 287 286 287 288 287 286 286 286 285 284 285 285 284 284 284 283 282 280 280 280 281 280 279 278 279
259 261 264 265 267 267 265 266 269 272 275 278 279 280 283 283 284 286 286 285 284 285 286 286 286 287 287 286 286 286 286 285 285 285 283 280 279 280 281 281 281 281 281 281
264 262 261 263 265 265 265 267 270 273 274 277 278 280 282 283 283 283 283 283 283 283 284 285 286 287 287 286 286 286 286 286 284 284 282 280 279 280 281 281 281 281 282 284
264 263 263 262 262 265 267 267 270 272 275 277 279 279 280 281 282 283 281 281 281 281 282 284 284 285 285 285 286 286 287 288 286 283 281 281 281 281 282 282 282 282 283 284
Height
5860 5861 5860 5860 5860 5860 5860 5859 5859 5859 5858 5858 5857 5858 5858 5857 5857 5857 5856 5857 5857 5857 5856 5855 5854 5853 5853 5853 5852 5851 5851 5850 5849 5848 5847 5846 5845 5844 5843 5842 5841 5840 5840 5839
5857 5857 5857 5856 5856 5856 5856 5856 5856 5855 5855 5854 5854 5854 5854 5854 5854 5854 5853 5853 5854 5853 5853 5852 5851 5850 5850 5849 5848 5848 5847 5846 5846 5845 5844 5843 5842 5841 5840 5839 5838 5838 5837 5836
5853 5854 5853 5853 5852 5852 5852 5852 5852 5851 5851 5851 5851 5851 5851 5851 5851 5851 5850 5850 5850 5849 5849 5848 5848 5847 5846 5845 5845 5844 5844 5843 5842 5841 5841 5840 5839 5838 5837 5836 5836 5835 5834 5833
5849 5849 5849 5849 5848 5848 5848 5848 5848 5847 5847 5847 5848 5847 5848 5847 5847 5847 5847 5846 5845 5845 5845 5844 5844 5843 5842 5842 5841 5840 5840 5839 5838 5838 5837 5836 5836 5835 5834 5833 5833 5832 5831 5830
5845 5845 5845 5844 5844 5844 5844 5843 5844 5844 5843 5843 5843 5843 5844 5844 5843 5843 5843 5842 5841 5841 5841 5840 5839 5839 5838 5838 5837 5836 5836 5835 5835 5834 5833 5833 5832 5831 5831 5830 5829 5829 5828 5827
5841 5841 5840 5840 5840 5840 5839 5840 5839 5839 5839 5840 5840 5839 5839 5839 5839 5839 5839 5838 5838 5837 5837 5836 5835 5835 5834 5834 5833 5832 5832 5831 5831 5830 5829 5829 5829 5828 5827 5826 5825 5825 5824 5823
5837 5836 5836 5836 5836 5835 5835 5836 5836 5835 5835 5836 5835 5834 5835 5835 5835 5835 5834 5834 5834 5833 5832 5832 5831 5831 5830 5830 5829 5828 5828 5827 5827 5826 5825 5825 5825 5824 5823 5822 5821 5821 5820 5819
5832 5833 5832 5831 5831 5831 5831 5831 5832 5831 5831 5831 5830 5830 5831 5830 5830 5829 5829 5829 5828 5828 5828 5827 5827 5826 5826 5825 5824 5824 5823 5823 5822 5822 5821 5821 5820 5819 5819 5818 5817 5816 5815 5814
5827 5828 5828 5827 5827 5827 5827 5826 5827 5827 5826 5826 5826 5826 5826 5825 5825 5825 5824 5824 5823 5823 5823 5822 5822 5822 5821 5820 5820 5819 5818 5818 5817 5817 5816 5815 5815 5814 5814 5813 5812 5811 5810 5809
5822 5822 5823 5823 5822 5822 5823 5822 5822 5822 5821 5821 5821 5821 5822 5821 5820 5820 5819 5819 5819 5819 5818 5818 5817 5817 5816 5815 5814 5814 5813 5812 5812 5811 5811 5810 5809 5808 5808 5807 5807 5806 5805 5804
5816 5817 5818 5818 5818 5818 5818 5818 5817 5817 5817 5817 5817 5819 5817 5816 5815 5815 5815 5814 5814 5813 5813 5812 5812 5811 5810 5809 5809 5808 5807 5806 5806 5805 5805 5804 5803 5802 5802 5801 5801 5800 5799 5798
5811 5812 5812 5813 5813 5813 5813 5813 5813 5813 5812 5811 5811 5815 5812 5811 5810 5809 5809 5809 5808 5808 5807 5807 5806 5805 5804 5803 5803 5802 5801 5800 5799 5799 5798 5797 5797 5796 5795 5795 5794 5794 5793 5792
5805 5806 5806 5807 5809 5808 5807 5808 5807 5807 5807 5806 5806 5809 5806 5805 5804 5804 5804 5803 5802 5802 5801 5800 5800 5799 5798 5797 5796 5795 5794 5793 5792 5791 5791 5790 5790 5789 5788 5788 5787 5787 5786 5786
5799 5799 5801 5802 5802 5802 5802 5802 5802 5802 5801 5801 5801 5802 5800 5799 5799 5798 5798 5797 5796 5796 5795 5794 5793 5792 5790 5789 5789 5787 5787 5786 5785 5784 5783 5783 5782 5782 5781 5781 5780 5779 5779 5778
5792 5793 5794 5795 5795 5795 5796 5796 5796 5796 5796 5796 5796 5795 5795 5794 5793 5792 5792 5791 5790 5789 5788 5787 5786 5785 5784 5782 5781 5780 5779 5778 5777 5776 5776 5775 5774 5774 5773 5772 5772 5772 5771 5771
5786 5787 5788 5788 5789 5789 5789 5789 5790 5790 5790 5790 5790 5790 5789 5788 5787 5787 5786 5785 5784 5783 5781 5780 5778 5777 5776 5775 5774 5773 5772 5771 5770 5769 5768 5767 5766 5765 5764 5764 5763 5763 5763 5763
5780 5780 5781 5782 5782 5782 5782 5784 5784 5784 5784 5784 5784 5785 5783 5783 5782 5781 5779 5779 5778 5776 5775 5773 5771 5770 5768 5767 5766 5765 5764 5762 5762 5761 5759 5758 5757 5756 5755 5755 5755 5755 5754 5754
5773 5773 5774 5775 5776 5776 5779 5778 5778 5778 5778 5778 5778 5778 5777 5777 5776 5774 5773 5772 5771 5769 5768 5766 5764 5763 5761 5759 5758 5756 5755 5754 5753 5752 5751 5749 5748 5747 5747 5746 5746 5746 5746 5745
5767 5767 5767 5768 5768 5770 5772 5772 5772 5772 5772 5772 5772 5772 5771 5770 5769 5768 5767 5765 5764 5762 5761 5759 5757 5755 5753 5752 5750 5748 5747 5746 5744 5743 5742 5741 5740 5739 5738 5738 5737 5737 5737 5736
5761 5761 5762 5762 5762 5763 5767 5767 5766 5766 5765 5766 5765 5765 5763 5762 5762 5762 5760 5758 5756 5755 5753 5751 5749 5747 5746 5744 5742 5741 5739 5738 5736 5735 5734 5732 5731 5730 5729 5729 5729 5728 5728 5727
5755 5755 5756 5756 5756 5757 5759 5759 5759 5760 5760 5759 5758 5757 5756 5755 5755 5754 5752 5750 5749 5747 5745 5744 5742 5740 5738 5736 5735 5733 5731 5730 5728 5727 5725 5724 5723 5722 5721 5721 5720 5719 5719 5718
5749 5749 5749 5750 5750 5753 5752 5752 5753 5753 5752 5751 5750 5750 5749 5748 5747 5746 5744 5742 5741 5739 5738 5736 5734 5732 5731 5729 5727 5725 5723 5722 5720 5718 5717 5716 5715 5714 5713 5712 5711 5710 5710 5709
5742 5743 5743 5744 5745 5744 5744 5745 5745 5745 5745 5744 5743 5742 5741 5740 5739 5738 5736 5734 5733 5732 5730 5728 5726 5725 5723 5721 5719 5718 5716 5714 5712 5710 5709 5708 5707 5706 5705 5704 5703 5702 5701 5701
5736 5736 5736 5736 5736 5737 5737 5738 5738 5738 5737 5737 5736 5735 5734 5733 5732 5730 5728 5727 5725 5724 5722 5721 5719 5717 5715 5714 5712 5710 5708 5706 5704 5703 5701 5700 5699 5698 5697 5696 5695 5694 5693 5692
5730 5729 5728 5729 5730 5730 5730 5730 5731 5730 5730 5729 5728 5727 5726 5725 5723 5722 5720 5719 5718 5716 5715 5713 5712 5710 5708 5706 5704 5702 5700 5698 5697 5695 5694 5692 5691 5690 5689 5688 5687 5686 5685 5684
5722 5721 5721 5722 5722 5722 5723 5723 5723 5722 5722 5721 5720 5719 5718 5716 5715 5714 5712 5711 5710 5708 5707 5706 5704 5702 5701 5699 5697 5695 5692 5690 5689 5687 5686 5685 5684 5682 5681 5680 5679 5677 5677 5675